Change the Weather History Date:

Friday, July 27, 2012

  Actual Average Record
Temperature  
Mean Temperature 92 °F -  
Max Temperature 109 °F 106 °F 119 °F (1998)
Min Temperature 75 °F 78 °F 66 °F (1949)
Cooling Degree Days 27    
Growing Degree Days 42 (Base 50)    
Moisture  
Dew Point 35 °F    
Average Humidity 15    
Maximum Humidity 31    
Minimum Humidity 7    
Precipitation  
Precipitation 0.00 in - - ()
Sea Level Pressure  
Sea Level Pressure 29.77 in    
Wind  
Wind Speed 5 mph (WSW)    
Max Wind Speed 14 mph    
Max Gust Speed -    
Visibility 10 miles    
Events      
Averages and records for this station are not official NWS values.
T = Trace of Precipitation, MM = Missing Value Source: NWS Daily Summary

Daily Weather History Graph

Daily Weather History Graph

Search for Another Location

Airport or City:

Trip Planner

Search our weather history database for the weather conditions in past years. The results will help you decide how hot, cold, wet, or windy it might be!

Date:

Astronomy

Jul. 27, 2012 Rise Set
Actual Time 5:53 AM PDT 7:44 PM PDT
Civil Twilight 5:25 AM PDT 8:11 PM PDT
Nautical Twilight 4:52 AM PDT 8:44 PM PDT
Astronomical Twilight 4:17 AM PDT 9:19 PM PDT
Moon 2:45 PM PDT (7/27) 12:28 AM PDT (7/27)
Length of Visible Light 14h 45m
Length of Day
13h 51m
Waxing Gibbous, 66% of the Moon is Illuminated
Jul 27
Waxing Gibbous
Aug 1
Full
Aug 9
Last Quarter
Aug 17
New
Aug 24
First Quarter

Hourly Weather History & Observations

Time (PDT) Temp. Dew Point Humidity Pressure Visibility Wind Dir Wind Speed Gust Speed Precip Events Conditions
12:53 AM 82.9 °F 44.1 °F 25% 29.75 in 10.0 mi NW 4.6 mph - N/A   Clear
1:53 AM 84.0 °F 39.9 °F 21% 29.76 in 10.0 mi NW 5.8 mph - N/A   Clear
2:53 AM 82.0 °F 37.9 °F 21% 29.76 in 10.0 mi WSW 3.5 mph - N/A   Clear
3:53 AM 82.0 °F 37.9 °F 21% 29.76 in 10.0 mi SW 6.9 mph - N/A   Clear
4:53 AM 78.1 °F 42.1 °F 28% 29.77 in 10.0 mi SSW 3.5 mph - N/A   Clear
5:53 AM 75.9 °F 43.0 °F 31% 29.78 in 10.0 mi West 5.8 mph - N/A   Clear
6:53 AM 80.1 °F 37.0 °F 21% 29.80 in 10.0 mi Calm Calm - N/A   Clear
7:53 AM 86.0 °F 39.9 °F 20% 29.82 in 10.0 mi Calm Calm - N/A   Clear
8:53 AM 91.0 °F 36.0 °F 14% 29.83 in 10.0 mi Calm Calm - N/A   Clear
9:53 AM 97.0 °F 36.0 °F 12% 29.83 in 10.0 mi Calm Calm - N/A   Clear
10:53 AM 100.9 °F 30.9 °F 9% 29.83 in 10.0 mi Variable 3.5 mph - N/A   Clear
11:53 AM 102.0 °F 32.0 °F 9% 29.82 in 10.0 mi Variable 3.5 mph - N/A   Clear
12:53 PM 105.1 °F 32.0 °F 8% 29.80 in 10.0 mi Variable 3.5 mph - N/A   Clear
1:53 PM 106.0 °F 30.9 °F 7% 29.78 in 10.0 mi Calm Calm - N/A   Clear
2:53 PM 108.0 °F 30.9 °F 7% 29.75 in 10.0 mi South 8.1 mph - N/A   Clear
3:53 PM 109.0 °F 33.1 °F 7% 29.73 in 10.0 mi ENE 6.9 mph - N/A   Clear
4:53 PM 109.9 °F 30.9 °F 7% 29.71 in 10.0 mi East 8.1 mph - N/A   Clear
5:53 PM 109.0 °F 30.0 °F 7% 29.69 in 10.0 mi East 4.6 mph - N/A   Clear
6:53 PM 102.9 °F 32.0 °F 8% 29.70 in 10.0 mi WSW 13.8 mph - N/A   Clear
7:53 PM 95.0 °F 35.1 °F 12% 29.71 in 10.0 mi West 12.7 mph - N/A   Clear
8:53 PM 91.0 °F 34.0 °F 13% 29.74 in 10.0 mi West 12.7 mph - N/A   Clear
9:53 PM 88.0 °F 32.0 °F 14% 29.76 in 10.0 mi West 10.4 mph - N/A   Clear
10:53 PM 86.0 °F 30.9 °F 14% 29.77 in 10.0 mi West 9.2 mph - N/A   Clear
11:53 PM 82.9 °F 32.0 °F 16% 29.77 in 10.0 mi West 5.8 mph - N/A   Clear